Location: ??? ???
(33.4974°N, 35.4618°E)
Time: 18:16:10
(UTC+00:00)

Delta 2 Rocket - Pass Details

Date: 29 October 2020
Orbit: 415 x 806 km, 35.6° (Epoch: 01 December)

Event Time Altitude Azimuth Distance (km) Brightness Sun altitude
Rises 15:28:57 0° 284° (WNW) 2,977 8.4 -9.0°
Reaches altitude 10° 15:31:14 10° 282° (WNW) 2,124 7.6 -9.5°
Maximum altitude 15:36:14 69° 199° (SSW) 786 4.2 -10.5°
Drops below altitude 10° 15:41:44 10° 117° (ESE) 2,325 6.0 -11.6°
Enters shadow 15:41:57 - 117° (ESE) 2,404 6.1 -11.7°
